TimeEST,TemperatureF,Dew PointF,Humidity,Sea Level PressureIn,VisibilityMPH,Wind Direction,Wind SpeedMPH,Gust SpeedMPH,PrecipitationIn,Events,Conditions,WindDirDegrees,DateUTC
12:53 AM,50.0,44.1,80,30.04,10.0,Calm,Calm,-,N/A,,Overcast,0,2012-12-07 05:53:00
1:53 AM,50.0,44.1,80,30.03,10.0,South,3.5,-,N/A,,Overcast,170,2012-12-07 06:53:00
2:53 AM,51.1,44.1,77,30.04,10.0,South,4.6,-,N/A,,Overcast,180,2012-12-07 07:53:00
3:53 AM,51.1,44.1,77,30.03,10.0,SSE,3.5,-,0.00,,Overcast,160,2012-12-07 08:53:00
4:53 AM,51.1,44.1,77,30.02,10.0,Calm,Calm,-,0.00,,Overcast,0,2012-12-07 09:53:00
5:53 AM,51.1,45.0,80,30.02,10.0,SSE,3.5,-,N/A,,Overcast,160,2012-12-07 10:53:00
6:53 AM,51.1,45.0,80,30.02,10.0,SSE,4.6,-,N/A,,Overcast,150,2012-12-07 11:53:00
7:53 AM,51.1,46.0,83,30.03,10.0,South,4.6,-,0.00,Rain,Light Rain,170,2012-12-07 12:53:00
8:53 AM,53.1,46.9,80,30.02,10.0,South,5.8,-,0.00,,Mostly Cloudy,170,2012-12-07 13:53:00
9:53 AM,55.0,48.0,77,30.02,10.0,South,5.8,-,N/A,,Mostly Cloudy,180,2012-12-07 14:53:00
10:53 AM,57.0,48.9,74,30.02,10.0,SSW,15.0,20.7,N/A,,Mostly Cloudy,200,2012-12-07 15:53:00
11:53 AM,59.0,48.9,69,29.99,10.0,SSW,13.8,19.6,N/A,,Mostly Cloudy,200,2012-12-07 16:53:00
12:53 PM,60.1,48.9,67,29.96,10.0,South,10.4,-,N/A,,Mostly Cloudy,190,2012-12-07 17:53:00
1:53 PM,62.1,50.0,65,29.93,10.0,SSW,12.7,-,N/A,,Clear,200,2012-12-07 18:53:00
2:53 PM,63.0,50.0,63,29.91,10.0,SSW,10.4,17.3,N/A,,Overcast,200,2012-12-07 19:53:00
3:53 PM,61.0,48.9,64,29.92,10.0,South,11.5,-,N/A,,Mostly Cloudy,180,2012-12-07 20:53:00
4:53 PM,60.1,48.9,67,29.91,10.0,South,5.8,-,N/A,,Overcast,180,2012-12-07 21:53:00
5:53 PM,57.9,48.0,70,29.91,10.0,South,5.8,-,N/A,,Mostly Cloudy,180,2012-12-07 22:53:00
6:53 PM,57.0,48.0,72,29.92,10.0,South,3.5,-,N/A,,Overcast,170,2012-12-07 23:53:00
7:53 PM,55.9,48.0,75,29.92,10.0,Calm,Calm,-,N/A,,Overcast,0,2012-12-08 00:53:00
8:53 PM,55.9,48.9,77,29.92,10.0,South,4.6,-,N/A,,Overcast,190,2012-12-08 01:53:00
9:53 PM,55.9,48.9,77,29.92,10.0,Calm,Calm,-,N/A,,Mostly Cloudy,0,2012-12-08 02:53:00
10:44 PM,57.2,50.0,77,29.94,10.0,SW,4.6,-,N/A,,Overcast,220,2012-12-08 03:44:00
11:29 PM,57.2,50.0,77,29.95,10.0,SW,6.9,-,N/A,,Overcast,220,2012-12-08 04:29:00
11:53 PM,57.0,50.0,77,29.93,10.0,SSW,5.8,-,N/A,,Mostly Cloudy,210,2012-12-08 04:53:00